Weather in Comendador

Dominican Republic     18°52′24″N   71°41′57″W
temp.,
°C
wind,
m/s
gust,
m/s
humid.,
%
clouds,
%
prec.,
mm/h
press.,
hPa
HPBL,
m
27 november, sat
sat2723:00+18w119140 0.3 101618
02:00+18s019250 0.3 101511
05:00+17e019388 0.0 101511
08:00+18e118753 0.0 101747
11:00+22nnw217474 0.1 1017775
14:00+24nnw226444 0.8 10141139
17:00+23nw1265100 0.3 1014310
20:00+18wnw118434 0.4 101614
28 november, sun
sun2823:00+17ese019127 0.1 101712
02:00+16nne119341 0.1 101611
05:00+16e1191100 0.0 101611
08:00+18ese118676 0.0 101739
11:00+23w01665 0.0 1017855
14:00+25nw225569 0.0 10141593
17:00+23nnw126753 0.1 1014246
20:00+21ssw1174100 0.4 101615
29 november, mon
mon2923:00+18ssw1186100 0.1 101711
02:00+17ese11885 0.1 101512
05:00+16ese11881 0.0 101511
08:00+18ese22845 0.0 101635
11:00+24wsw01645 0.0 1017848
14:00+26nw225350 0.0 10141665
17:00+23nw226652 0.1 1013130
20:00+20ssw117740 0.2 101616
30 november, tue
tue3023:00+17ene118639 0.0 101711
02:00+17e118857 0.0 101611
05:00+16ene118831 0.0 101611
08:00+18ene11828 0.0 101725
11:00+23nne116127 0.0 1018766
14:00+26n025066 0.0 10151618
17:00+24nw126181 0.0 1014142
20:00+20sw116939 0.1 101715
1 december, wed
wed123:00+17w018550 0.0 101811
02:00+17ne1190100 0.0 101711
05:00+17ene1190100 0.0 101711
08:00+18e228643 0.0 101851
11:00+23e126458 0.0 1019797
14:00+26nne135295 0.0 10161598
17:00+25nne126157 0.1 1015401
20:00+19sw017769 0.1 101811